Terminal Aerodrome Forecast
Issued by NWS State College, PA

Current Version | Previous Version | Text Only | Print | Product List | Glossary On
Versions: 1 2 3 4 5 6 7 8 9 10 11 12 13 14 15 16 17 18 19 20 21 22 23 24 25 26 27 28 29 30 31 32 33 34 35 36 37 38 39 40 41 42 43 44 45 46 47 48 49 50
000
FTUS41 KCTP 272339
TAFIPT
TAF
KIPT 272339Z 2800/2824 VRB03KT P6SM FEW040
     FM280300 00000KT 4SM BR SKC
     FM280700 00000KT 3/4SM BR BKN003
     FM281200 00000KT 2SM BR SCT003
     FM281300 VRB03KT P6SM SCT040=

USA.gov is the U.S. government's official web portal to all federal, state and local government web resources and services.